Погода Островное

Погода Островное : погода сейчас, прогноз погоды и архив. Всё, что Вы хотите узнать о погоде Островное!

Поиск расширенной информации на нашем сайте:

Другие новости

Новости СМИ2

Главная страница сайта

Новости сайта

03.07.2017

Напоминаем, что на нашем специализированном сайте Метеоцентр.Азия вы можете получить высокодетализированные автоматические прогнозы погоды по пунктам России, СНГ и мира в авиационном формате (включающие направление и скорость ветра, видимость, явления погоды, количество и форму облачности, нижнюю и верхнюю границу облачности).

Рекомендуем: стеклянные торговые витрины

Погода Островное - сегодня

Время (UTC), дата Ветер
(°,м/с) 
Видим.   Явления Облачность Т
(°С)
Тd
(°С)
f(%) Тe
(°С)
Pmin
(гПа)
dP
(гПа)
Po
(мм)
O2
(г/м3)
Тmin Tmax R s Состояние
почвы
15 09.12.17 060 (СВ) 1{02}  20000 м    5/0 средняя, верхняя 
[Ac trans|Ci fib]
-31.3 -35 70 -32  1030.2  -0.3  762  349           
18 09.12.17 110 (В) 1{02}  20000 м    ясно 
-32.4 -36.1 69 -33  1029.7  -0.5  762  350           
21 09.12.17 090 (В) 2{03}  20000 м  слаб. снег  10/0 средняя, верхняя 
[Ac trans|Cs]
-29.4 -32.4 75 -33  1029.8  0.2  762  346  -32.9    0.0  29  равномерный
сухой снег
100% 
00 10.12.17 110 (В) 1{03}  20000 м  {снег}  8/8 1000 м 
[Sc]
-28.5 -31.5 75 -29  1029.6  -0.1  762  345           
03 10.12.17 тихо () {03}  20000 м    10/8 1000 м средняя 
[Sc|Ac As]
-27.2 -30.3 75 -27  1029.8  0.2  762  343           
06 10.12.17 080 (В) 1{02}  20000 м  снежные кристаллы  8/6 600 м средняя 
[Sc|Ac trans]
-27.3 -30.4 75 -28  1030.5  0.7  763  343           
09 10.12.17 тихо () {02}  20000 м  слаб. снег  10/9 600 м средняя 
[Sc|As op]
-25.3 -28.4 75 -25  1032.2  1.8  764  341    -25.3  0.2     
12 10.12.17 тихо () {01}  20000 м  {снег}  9/8 600 м средняя 
[Sc|Ac trans]
-25.8 -28.9 75 -26  1033.2  765  342           
15 10.12.17 280 (З) 1{03}  20000 м  слаб. снег  10/8 600 м средняя 
[Sc|Ac As]
-23.1 -25.5 81 -24  1034.4  1.3  766  339           
18 10.12.17 080 (В) 1{03}  20000 м  слаб. снег  10/9 600 м средняя 
[Sc|Ac As]
-23.5 -26 80 -24  1035.9  1.4  767  340           
21 10.12.17 270 (З) 2{04}  20000 м  {снег}  10/8 600 м средняя 
[Sc|Ac As]
-22.7 -25.2 80 -26  1037.4  1.6  768  339  -25.9    0.0  29  равномерный
сухой снег
100% 
00 11.12.17 170 (Ю) 1{04}  10 км  слаб. снег  10/8 600 м средняя 
[Sc|As op]
-22.5 -25 80 -23  1038.3  0.9  769  339           
03 11.12.17 240 (ЮЗ) 1{04}  10 км  слаб. снег  10/8 600 м средняя, верхняя 
[Sc|Ac trans|Cs]
-23.4 -25.9 80 -24  1039.1  0.7  769  341           
06 11.12.17 270 (З) 2{04}  20000 м  снежные кристаллы  10/8 600 м средняя 
[Sc|Ac und]
-23.1 -26.3 75 -26  1040  0.9  770  341           
09 11.12.17 260 (З) 2{05}  20000 м  {снег}  9/6 720 м средняя 
[Sc|Ac trans]
-23.4 -26.6 75 -26  1040.5  0.5  770  341    -22.4  0.7     
12 11.12.17 240 (ЮЗ) 1{06}  20000 м  {снег}  10/6 600 м средняя 
[Sc|Ac und]
-23.2 -26.4 75 -24  1040.8  0.3  771  341           
15 11.12.17 190 (Ю) 2{06}  20000 м  снежные кристаллы  10/6 600 м средняя 
[Sc|Ac und]
-23.4 -26.6 75 -26  1040.3  -0.5  770  341           
18 11.12.17 270 (З) 3{10}  20000 м  слаб. снег  10/8 600 м средняя 
[Sc|Ac As]
-24.2 -28.1 70 -29  1040.6  0.3  770  342           
21 11.12.17 300 (СЗ) 4{08}  20000 м  {снег}  8/6 600 м средняя 
[Sc|Ac trans]
-25.5 -28.6 75 -32  1040.9  0.2  771  344  -25.5    0.4  33  равномерный
сухой снег
100% 
00 12.12.17 290 (З) 3{09}  20000 м  слаб. снег  10/8 600 м средняя 
[Sc|Ac As]
-26 -29.1 75 -31  1040.8  -0.1  770  345           
03 12.12.17 290 (З) 2{07}  20000 м  слаб. снег  10/8 600 м средняя 
[Sc|Ac As]
-26.2 -30.1 70 -30  1040.6  -0.2  770  345           
06 12.12.17 280 (З) 1{05}  20000 м  слаб. снег  10/8 600 м средняя 
[Sc|Ac As]
-26.7 -30.5 70 -27  1040.3  -0.3  770  346           
09 12.12.17 290 (З) 1{04}  20000 м  слаб. снег  10/9 600 м средняя 
[Sc|Ac trans]
-26.7 -30.5 70 -27  1039.9  -0.4  770  346    -25.3  0.2     
12 12.12.17 270 (З) 1{04}  20000 м  слаб. снег  10/8 600 м средняя 
[Sc|Ac As]
-26.6 -29.7 75 -27  1039.1  -0.8  769  345           
15 12.12.17 280 (З) 3{04}  20000 м  слаб. снег  10/8 600 м средняя 
[Sc|As op]
-27.1 -30.1 76 -32  1038.1  -1.1  768  346           
Время (UTC), дата Ветер
(°,м/с) 
Видим.   Явления Облачность Т
(°С)
Тd
(°С)
f(%) Тe
(°С)
Pmin
(гПа)
dP
(гПа)
Po
(мм)
O2
(г/м3)
Тmin Tmax R s Состояние
почвы

Для получения пояснительной информации подведите курсор к названию столбца.

ПОГОДА Островное - архив

Всё, что Вы хотите узнать о погоде Островное - удобно и подробно!

Выберите нужную дату (начиная с 1 января 2015* года) и нажмите кнопку "Найти".
Будут отображены архивные сводки погоды по пункту Островное, начиная с указанной даты.


Отображать данные в формате CSV (для использования в таблицах Excel)


Внимание! Наш архив погоды предназначен исключительно для личного некоммерческого использования в познавательных целях. Если Вам необходимы официальные справки о состоянии погоды (для производственных, юридических, коммерческих и т.п. целей), обращайтесь в органы Росгидромета.

*Примечание: данная дата относится к архиву по метеостанциям СССР (Россия, СНГ, Балтия).
Архив по метеостанциям Зарубежной Европы и Азии (кроме Китая) хранится 10 дней, по другим регионам земного шара (Китай, Африка, Америка, Австралия, Океания) - 1 день.

Островное - район местоположения метеостанции


Название, широта, долгота, высота метеостанции:
Островное 68.12°ш. 164.16°д. 94 м над ур. моря [Российская Федерация]

Дополнительная информация

В oтличие oт бoльшинства пoгoдных сайтoв мы публикуем пoдрoбную метеoинфoрмацию в детальнoм прoфессиoнальнoм фoрмате.

Характеристики температуры и влажнoсти вoздуха измеряются на высoте 2 м в тени вдали oт зданий и деревьев.
Скoрoсть ветра измеряется на высoте 10 м (на урoвне рoста челoвека скoрoсть ветра ниже в 1.5-2 раза). Если метеoстанция нахoдится в гoрoде или в лесу, тo скoрoсть ветра занижена на 2-4 м/с пo сравнению с oткрытым местoм. Скoрoсть ветра над акватoриями крупных рек и oзёр, а также на вершинах хoлмoв на 2-5 м/с выше, чем в oбычных услoвиях.
Атмoсфернoе давление в разных тoчках местнoсти мoжет значительнo oтличаться oт давления на метеoстанции, в зависимoсти oт услoвий рельефа (при пoдъёме на 10 м давление пoнижается примернo на 1 мм рт.ст.).